| time (UTC) | temp F | wind direction | speed MPH | gust MPH | rain 1hr in | rain 24hr in | rain mn in | humidity % | barometer mb |
| 20260906104559 | 73 | 0 | 0.0 | 1.0 | 0.00 | 0.00 | 0.00 | 95 | 1010.7 |
| 20260906103053 | 73 | 0 | 0.0 | 0.0 | 0.00 | 0.00 | 0.00 | 94 | 1010.6 |
| 20260906101555 | 73 | 0 | 0.0 | 0.0 | 0.00 | 0.00 | 0.00 | 94 | 1010.7 |
| 20260906100111 | 73 | 0 | 0.0 | 0.0 | 0.00 | 0.00 | 0.00 | 94 | 1010.6 |
| 20260906094609 | 73 | 0 | 0.0 | 0.0 | 0.00 | 0.00 | 0.00 | 94 | 1010.5 |
| 20260906093104 | 73 | 0 | 0.0 | 0.0 | 0.00 | 0.00 | 0.00 | 94 | 1010.2 |
| 20260906091602 | 74 | 0 | 0.0 | 0.0 | 0.00 | 0.00 | 0.00 | 94 | 1010.0 |
| 20260906090113 | 74 | 0 | 0.0 | 0.0 | 0.00 | 0.00 | 0.00 | 94 | 1010.1 |
| 20260906084558 | 74 | 0 | 0.0 | 0.0 | 0.00 | 0.00 | 0.00 | 94 | 1010.1 |
| 20260906083100 | 74 | 0 | 0.0 | 0.0 | 0.00 | 0.00 | 0.00 | 93 | 1010.1 |
| 20260906081552 | 75 | 0 | 0.0 | 0.0 | 0.00 | 0.00 | 0.00 | 93 | 1010.3 |
| 20260906074602 | 75 | 0 | 0.0 | 0.0 | 0.00 | 0.00 | 0.00 | 93 | 1010.3 |
| 20260906073054 | 75 | 0 | 0.0 | 0.0 | 0.00 | 0.00 | 0.00 | 93 | 1010.4 |
| 20260906071555 | 76 | 0 | 0.0 | 0.0 | 0.00 | 0.00 | 0.00 | 93 | 1010.5 |
| 20260906070059 | 76 | 0 | 0.0 | 0.0 | 0.00 | 0.00 | 0.00 | 93 | 1010.7 |
| 20260906064553 | 76 | 0 | 0.0 | 1.0 | 0.00 | 0.00 | 0.00 | 93 | 1010.8 |
| 20260906063102 | 77 | 0 | 0.0 | 0.0 | 0.00 | 0.00 | 0.00 | 92 | 1010.8 |
| 20260906061607 | 77 | 0 | 0.0 | 1.0 | 0.00 | 0.00 | 0.00 | 92 | 1010.8 |
| 20260906060105 | 77 | 11 | 0.0 | 3.0 | 0.00 | 0.00 | 0.00 | 92 | 1010.9 |
| 20260906054555 | 78 | 55 | 1.0 | 3.0 | 0.00 | 0.00 | 0.00 | 92 | 1011.1 |
| 20260906053058 | 78 | 0 | 0.0 | 1.0 | 0.00 | 0.00 | 0.00 | 93 | 1011.0 |
| 20260906051604 | 79 | 311 | 0.0 | 2.0 | 0.00 | 0.00 | 0.00 | 93 | 1011.2 |
| 20260906050105 | 80 | 46 | 0.0 | 3.0 | 0.00 | 0.00 | 0.00 | 93 | 1011.2 |
| 20260906044559 | 81 | 0 | 0.0 | 1.0 | 0.00 | 0.00 | 0.00 | 93 | 1011.1 |
| 20260906043057 | 81 | 265 | 0.0 | 1.0 | 0.00 | 0.00 | 0.00 | 93 | 1011.2 |
| 20260906041600 | 81 | 0 | 0.0 | 2.0 | 0.00 | 0.00 | 0.00 | 94 | 1011.3 |
| 20260906040104 | 82 | 262 | 0.0 | 2.0 | 0.00 | 0.00 | 0.00 | 94 | 1011.2 |
| 20260906034606 | 82 | 257 | 0.0 | 3.0 | 0.00 | 0.00 | 0.00 | 94 | 1011.3 |
| 20260906033108 | 82 | 0 | 0.0 | 2.0 | 0.00 | 0.00 | 0.00 | 93 | 1011.6 |
| 20260906031602 | 82 | 0 | 0.0 | 2.0 | 0.00 | 0.00 | 0.00 | 93 | 1011.5 |
| 20260906024608 | 82 | 348 | 0.0 | 2.0 | 0.00 | 0.00 | 0.00 | 93 | 1011.9 |
| 20260906023102 | 82 | 348 | 1.0 | 3.0 | 0.00 | 0.00 | 0.00 | 93 | 1011.4 |
| 20260906021603 | 82 | 355 | 0.0 | 4.0 | 0.00 | 0.00 | 0.00 | 93 | 1010.8 |
| 20260906020108 | 82 | 347 | 1.0 | 7.0 | 0.00 | 0.00 | 0.00 | 93 | 1010.7 |
| 20260906014611 | 82 | 285 | 1.0 | 5.0 | 0.00 | 0.00 | 0.00 | 93 | 1009.3 |
| 20260906013103 | 82 | 0 | 0.0 | 3.0 | 0.00 | 0.00 | 0.00 | 93 | 1010.1 |
| 20260906011615 | 82 | 225 | 1.0 | 4.0 | 0.00 | 0.00 | 0.00 | 93 | 1010.5 |
| 20260906010108 | 82 | 261 | 0.0 | 2.0 | 0.00 | 0.00 | 0.00 | 92 | 1010.9 |
| 20260906004601 | 82 | 240 | 0.0 | 1.0 | 0.00 | 0.00 | 0.00 | 91 | 1011.3 |
| 20260906003111 | 82 | 0 | 0.0 | 2.0 | 0.00 | 0.00 | 0.00 | 91 | 1011.4 |
| 20260906001603 | 83 | 0 | 0.0 | 3.0 | 0.00 | 0.00 | 0.00 | 91 | 1011.4 |
| 20260906000059 | 83 | 245 | 0.0 | 4.0 | 0.00 | 0.00 | 0.00 | 91 | 1011.5 |
| 20260905234555 | 83 | 0 | 0.0 | 5.0 | 0.00 | 0.00 | 0.00 | 91 | 1011.4 |
| 20260905233132 | 83 | 307 | 1.0 | 7.0 | 0.00 | 0.00 | 0.00 | 90 | 1011.5 |
| 20260905231602 | 84 | 0 | 2.0 | 7.0 | 0.00 | 0.00 | 0.00 | 89 | 1011.4 |
| 20260905224611 | 85 | 198 | 3.0 | 9.0 | 0.00 | 0.00 | 0.00 | 88 | 1011.1 |
| 20260905223107 | 86 | 281 | 3.0 | 11.0 | 0.00 | 0.00 | 0.00 | 87 | 1011.0 |
| 20260905221604 | 86 | 259 | 3.0 | 10.0 | 0.00 | 0.00 | 0.00 | 86 | 1010.8 |
| 20260905220057 | 87 | 209 | 5.0 | 12.0 | 0.00 | 0.00 | 0.00 | 85 | 1010.8 |
| 20260905214605 | 87 | 246 | 3.0 | 9.0 | 0.00 | 0.00 | 0.00 | 85 | 1010.8 |
| 20260905213101 | 88 | 207 | 4.0 | 9.0 | 0.00 | 0.00 | 0.00 | 84 | 1010.8 |
| 20260905211604 | 87 | 234 | 3.0 | 9.0 | 0.00 | 0.00 | 0.00 | 84 | 1010.7 |
| 20260905204559 | 88 | 262 | 5.0 | 10.0 | 0.00 | 0.00 | 0.00 | 84 | 1010.5 |
| 20260905203106 | 88 | 227 | 5.0 | 15.0 | 0.00 | 0.00 | 0.00 | 83 | 1010.1 |
| 20260905201613 | 88 | 244 | 5.0 | 13.0 | 0.00 | 0.00 | 0.00 | 83 | 1010.0 |
| 20260905200104 | 88 | 229 | 5.0 | 10.0 | 0.00 | 0.00 | 0.00 | 82 | 1010.1 |
| 20260905194605 | 88 | 282 | 3.0 | 9.0 | 0.00 | 0.00 | 0.00 | 82 | 1010.3 |
| 20260905193052 | 88 | 232 | 3.0 | 9.0 | 0.00 | 0.00 | 0.00 | 84 | 1010.8 |
| 20260905191605 | 88 | 207 | 3.0 | 10.0 | 0.00 | 0.00 | 0.00 | 84 | 1011.1 |
| 20260905190120 | 88 | 250 | 5.0 | 11.0 | 0.00 | 0.00 | 0.00 | 83 | 1011.5 |
| 20260905184620 | 88 | 236 | 4.0 | 11.0 | 0.00 | 0.00 | 0.00 | 84 | 1011.7 |
| 20260905183054 | 88 | 249 | 4.0 | 12.0 | 0.00 | 0.00 | 0.00 | 84 | 1011.8 |
| 20260905181606 | 88 | 231 | 5.0 | 12.0 | 0.00 | 0.00 | 0.00 | 83 | 1011.9 |
| 20260905174558 | 88 | 279 | 4.0 | 10.0 | 0.00 | 0.00 | 0.00 | 83 | 1012.6 |
| 20260905173109 | 89 | 240 | 5.0 | 11.0 | 0.00 | 0.00 | 0.00 | 83 | 1012.8 |
| 20260905171602 | 88 | 171 | 4.0 | 8.0 | 0.00 | 0.00 | 0.00 | 83 | 1012.8 |
| 20260905170113 | 89 | 227 | 5.0 | 10.0 | 0.00 | 0.00 | 0.00 | 84 | 1013.1 |
| 20260905164602 | 88 | 190 | 4.0 | 8.0 | 0.00 | 0.00 | 0.00 | 84 | 1013.2 |
| 20260905163105 | 88 | 263 | 3.0 | 8.0 | 0.00 | 0.00 | 0.00 | 85 | 1013.4 |
| 20260905161600 | 88 | 229 | 3.0 | 8.0 | 0.00 | 0.00 | 0.00 | 84 | 1013.7 |
| 20260905160058 | 88 | 267 | 4.0 | 9.0 | 0.00 | 0.00 | 0.00 | 85 | 1013.9 |
| 20260905154606 | 87 | 244 | 2.0 | 7.0 | 0.00 | 0.00 | 0.00 | 84 | 1013.9 |
| 20260905153100 | 87 | 283 | 1.0 | 6.0 | 0.00 | 0.00 | 0.00 | 87 | 1014.0 |
| 20260905151600 | 86 | 267 | 2.0 | 7.0 | 0.00 | 0.00 | 0.00 | 88 | 1014.0 |
| 20260905150105 | 85 | 238 | 1.0 | 5.0 | 0.00 | 0.00 | 0.00 | 89 | 1014.2 |
| 20260905144602 | 84 | 259 | 3.0 | 7.0 | 0.00 | 0.00 | 0.00 | 88 | 1014.2 |
| 20260905143101 | 83 | 258 | 1.0 | 3.0 | 0.00 | 0.00 | 0.00 | 92 | 1014.3 |
| 20260905141623 | 83 | 0 | 0.0 | 3.0 | 0.00 | 0.00 | 0.00 | 93 | 1014.3 |
| 20260905140107 | 82 | 0 | 0.0 | 2.0 | 0.00 | 0.00 | 0.00 | 93 | 1014.3 |
| 20260905134601 | 82 | 0 | 0.0 | 3.0 | 0.00 | 0.00 | 0.00 | 94 | 1014.4 |
| 20260905133059 | 82 | 0 | 0.0 | 4.0 | 0.00 | 0.00 | 0.00 | 95 | 1014.3 |
| 20260905131617 | 81 | 0 | 0.0 | 4.0 | 0.00 | 0.00 | 0.00 | 95 | 1014.4 |
| 20260905130100 | 81 | 284 | 0.0 | 3.0 | 0.00 | 0.00 | 0.00 | 96 | 1014.3 |
| 20260905124601 | 80 | 0 | 0.0 | 2.0 | 0.00 | 0.00 | 0.00 | 96 | 1014.4 |
| 20260905123109 | 79 | 85 | 0.0 | 2.0 | 0.00 | 0.00 | 0.00 | 96 | 1014.3 |
| 20260905121603 | 78 | 0 | 0.0 | 2.0 | 0.00 | 0.00 | 0.00 | 96 | 1014.3 |
| 20260905114606 | 76 | 0 | 0.0 | 0.0 | 0.00 | 0.00 | 0.00 | 95 | 1014.1 |
| 20260905113111 | 76 | 0 | 0.0 | 0.0 | 0.00 | 0.00 | 0.00 | 95 | 1014.0 |
| 20260905111604 | 76 | 0 | 0.0 | 1.0 | 0.00 | 0.00 | 0.00 | 95 | 1013.9 |